[TLELIST]

Mailing List Information:

  • This mailing list is a public mailing list - anyone may join or leave, at any time.

  • This mailing list is announce-only.

International Space Station (ISS) / Hubble Space Telescope (HST) / Chandra X-Ray Observatory Orbital Data via EMAIL

Privacy Policy:

Private list

Archives:

[TLELIST] Current TLEs

Sent March 25th 2019

HST 1 20580U 90037B 19083.39579741 +.00000416 +00000-0 +14403-4 0 9997 2 20580 028.4699 062.5516 0002430 276.0802 219.4198 15.09192125387753 ISS (ZARYA) 1 25544U 98067A 19084.43179578 -.00000469 00000-0 -52829-8 0 9991 2 25544 51.6445 57.5845 0002338 110.4745 32.6783 15.52430862162249 CXO 1 25867U 99040B 19084.60192244 .00000457 00000-0 00000+0 0 9995 2 25867 68.6066 277.2948 7110703 235.8125 0.2753 0.37804376 18493 ____________________________________________________________________ These 2-Line ...

[TLELIST] Current TLEs

Sent March 24th 2019

HST 1 20580U 90037B 19083.20305556 .00000410 00000-0 14015-4 0 9991 2 20580 28.4699 63.8260 0002425 273.9056 252.3347 15.09191979387819 ISS (ZARYA) 1 25544U 98067A 19083.39352416 -.00032849 00000-0 -52235-3 0 9992 2 25544 51.6455 62.7461 0002140 117.1579 339.5213 15.52433720162087 CXO 1 25867U 99040B 19084.60192244 .00000457 00000-0 00000+0 0 9995 2 25867 68.6066 277.2948 7110703 235.8125 0.2753 0.37804376 18493 ____________________________________________________________________ These 2-Line ...

[TLELIST] Current TLEs

Sent March 22nd 2019

HST 1 20580U 90037B 19080.42255418 +.00000445 +00000-0 +16182-4 0 9998 2 20580 028.4696 082.2109 0002451 241.0210 268.5711 15.09190684387300 ISS (ZARYA) 1 25544U 98067A 19081.34215632 .00001536 00000-0 31786-4 0 9999 2 25544 51.6401 72.9560 0003910 126.9290 15.7007 15.52839047161765 CXO 1 25867U 99040B 19081.95673844 .00000497 00000-0 00000+0 0 9994 2 25867 68.6475 277.3692 7111458 235.8636 0.1765 0.37810046 18481 ____________________________________________________________________ These 2-Line ...

[TLELIST] Current TLEs

Sent March 21st 2019

HST 1 20580U 90037B 19080.26282192 .00000520 00000-0 20790-4 0 9993 2 20580 28.4707 83.2676 0002598 232.6628 127.3723 15.09191453387360 ISS (ZARYA) 1 25544U 98067A 19080.37784266 .00002021 00000-0 39461-4 0 9993 2 25544 51.6412 77.7523 0003927 123.5521 24.7936 15.52837207161618 CXO 1 25867U 99040B 19081.95673844 .00000497 00000-0 00000+0 0 9994 2 25867 68.6475 277.3692 7111458 235.8636 0.1765 0.37810046 18481 ____________________________________________________________________ These 2-Line ...

[TLELIST] Current TLEs

Sent March 20th 2019

HST 1 20580U 90037B 19078.50237122 +.00000464 +00000-0 +17331-4 0 9994 2 20580 028.4693 094.9073 0002512 218.9973 277.4043 15.09189734387013 ISS (ZARYA) 1 25544U 98067A 19079.27885771 .00002089 00000-0 40546-4 0 9993 2 25544 51.6415 83.2211 0003848 120.3172 0.4094 15.52832029161440 CXO 1 25867U 99040B 19079.31162310 +.00000575 +00000-0 +00000-0 0 9990 2 25867 068.6985 277.4623 7110018 235.8874 000.1692 00.37810418007342 ____________________________________________________________________ These 2-Line ...

[TLELIST] Current TLEs

Sent March 19th 2019

HST 1 20580U 90037B 19077.50999834 +.00000465 +00000-0 +17418-4 0 9995 2 20580 028.4692 101.4690 0002550 207.7449 286.3287 15.09189157386867 ISS (ZARYA) 1 25544U 98067A 19078.23299007 .00002063 00000-0 40138-4 0 9998 2 25544 51.6414 88.4248 0003883 115.8864 274.3734 15.52826587161289 CXO 1 25867U 99040B 19079.31162310 +.00000575 +00000-0 +00000-0 0 9990 2 25867 068.6985 277.4623 7110018 235.8874 000.1692 00.37810418007342 ____________________________________________________________________ These 2-Line ...

[TLELIST] Current TLEs

Sent March 18th 2019

HST 1 20580U 90037B 19076.89094907 .00000455 00000-0 16786-4 0 9999 2 20580 28.4692 105.5623 0002575 200.8606 163.2031 15.09188722386850 ISS (ZARYA) 1 25544U 98067A 19077.36100694 .00001848 00000-0 36740-4 0 9998 2 25544 51.6416 92.7623 0003889 113.7797 78.7175 15.52821106161146 CXO 1 25867U 99040B 19079.31067402 .00000575 00000-0 00000+0 0 9995 2 25867 68.6984 277.4625 7110047 235.8876 0.0391 0.37809532 18473 ____________________________________________________________________ These 2-Line ...

[TLELIST] Current TLEs

Sent March 17th 2019

HST 1 20580U 90037B 19075.52546302 .00000440 00000-0 15885-4 0 9992 2 20580 28.4690 114.5912 0002636 185.7996 304.7692 15.09187876386652 ISS (ZARYA) 1 25544U 98067A 19076.25036258 .00001306 00000-0 28181-4 0 9998 2 25544 51.6419 98.2908 0003940 109.5337 350.1806 15.52814336160972 CXO 1 25867U 99040B 19079.31067402 .00000575 00000-0 00000+0 0 9995 2 25867 68.6984 277.4625 7110047 235.8876 0.0391 0.37809532 18473 ____________________________________________________________________ These 2-Line ...

[TLELIST] Current TLEs

Sent March 16th 2019

HST 1 20580U 90037B 19074.46714973 .00000470 00000-0 17723-4 0 9991 2 20580 28.4690 121.5890 0002682 174.4063 314.8727 15.09187554386492 ISS (ZARYA) 1 25544U 98067A 19074.89125941 .00000314 00000-0 12466-4 0 9991 2 25544 51.6417 105.0492 0003983 108.2501 308.8714 15.52804895160765 CXO 1 25867U 99040B 19076.66732339 .00000630 00000-0 00000+0 0 9990 2 25867 68.7383 277.5417 7105131 235.9085 0.2901 0.37804365 18465 ____________________________________________________________________ These 2-Line ...

[TLELIST] Current TLEs

Sent March 15th 2019

HST 1 20580U 90037B 19073.88167351 +.00000439 +00000-0 +15826-4 0 9995 2 20580 028.4690 125.4602 0002700 168.2092 013.8302 15.09187076386315 ISS (ZARYA) 1 25544U 98067A 19074.45629819 .00000477 00000-0 15050-4 0 9998 2 25544 51.6417 107.2139 0004022 105.7027 38.3347 15.52805031160699 CXO 1 25867U 99040B 19074.02297403 .00000657 00000-0 00000+0 0 9995 2 25867 68.7666 277.5988 7099580 235.9481 0.3527 0.37801652 18452 ____________________________________________________________________ These 2-Line ...

< < Previous

Index

 

this list's archives:

(archive rss , atom rss/atom )

Administration